User: anonymous   Login
Location: Altleiningen
(49.5078°N, 8.0741°E)
Time: 12:32:12
(UTC+00:00)
Language:

Cosmos 1437 - Orbit

View from above orbital plane
View from above orbital plane
View from above satellite
View from above satellite

Ground track
Ground track

The orbit data is extracted from the following two-line orbital elements,

1 13770U 83003A   21127.23239016  .00016560  00000-0  11381-3 0  9996
2 13770  81.1550 181.1547 0003034 180.6292 179.4964 15.74499605107957
Epoch (UTC): 07 May 2021 05:34:38
Eccentricity: 0.0003034
inclination: 81.1550°
perigee height: 344 km
apogee height: 348 km
right ascension of ascending node: 181.1547°
argument of perigee: 180.6292°
revolutions per day: 15.74499605
mean anomaly at epoch: 179.4964°
orbit number at epoch: 10795

The dashed part of the orbit path shows where the satellite is in the earth's shadow,  

DLR